Cherry Point, NC

5:09 AM EST on November 23, 2017 (GMT -0500)
Cherry Point Marine Corps Air Station

Weather History for KNKT - October, 2012

Change the Weather History Date:

Wednesday, October 3, 2012

  Actual Average Record
Temperature  
Mean Temperature 80 °F -  
Max Temperature 87 °F 76 °F 90 °F (2002)
Min Temperature 75 °F 57 °F 42 °F (2011)
Cooling Degree Days 16    
Growing Degree Days 30 (Base 50)    
Moisture  
Dew Point 74 °F    
Average Humidity 84    
Maximum Humidity 94    
Minimum Humidity 65    
Precipitation  
Precipitation 0.00 in - - ()
Sea Level Pressure  
Sea Level Pressure 30.10 in    
Wind  
Wind Speed 6 mph ()    
Max Wind Speed 12 mph    
Max Gust Speed -    
Visibility 9.6 miles    
Events      
Averages and records for this station are not official NWS values.
T = Trace of Precipitation, MM = Missing Value Source: Averaged Metar Reports

Daily Weather History Graph

Daily Weather History Graph

Search for Another Location

Airport or City:

Trip Planner

Search our weather history database for the weather conditions in past years. The results will help you decide how hot, cold, wet, or windy it might be!

Date:

Astronomy

Oct. 03, 2012 Rise Set
Actual Time 7:04 AM EDT 6:48 PM EDT
Civil Twilight 6:38 AM EDT 7:13 PM EDT
Nautical Twilight 6:09 AM EDT 7:42 PM EDT
Astronomical Twilight 5:40 AM EDT 8:11 PM EDT
Moon 8:48 PM EDT (10/3) 10:16 AM EDT (10/3)
Length of Visible Light 12h 34m
Length of Day
11h 43m
Waning Gibbous, 89% of the Moon is Illuminated
Oct 3
Waning Gibbous
Oct 8
Last Quarter
Oct 15
New
Oct 21
First Quarter
Oct 29
Full

Hourly Weather History & Observations

Time (EDT) Temp. Heat Index Dew Point Humidity Pressure Visibility Wind Dir Wind Speed Gust Speed Precip Events Conditions
12:54 AM 77.0 °F - 73.9 °F 90% 30.03 in 10.0 mi SSW 10.4 mph - N/A   Mostly Cloudy
1:54 AM 78.1 °F - 73.9 °F 87% 30.03 in 10.0 mi SSW 8.1 mph - N/A   Clear
2:54 AM 78.1 °F - 73.9 °F 87% 30.03 in 10.0 mi SSW 8.1 mph - N/A   Mostly Cloudy
3:30 AM 78.8 °F - 75.2 °F 89% 30.04 in 10.0 mi SSW 9.2 mph - N/A   Scattered Clouds
3:54 AM 78.1 °F - 73.9 °F 87% 30.04 in 10.0 mi SW 10.4 mph - N/A   Clear
4:54 AM 77.0 °F - 73.0 °F 88% 30.05 in 10.0 mi SSW 6.9 mph - N/A   Partly Cloudy
5:54 AM 77.0 °F - 73.0 °F 88% 30.06 in 10.0 mi SSW 4.6 mph - N/A   Clear
6:54 AM 75.9 °F - 73.0 °F 91% 30.08 in 9.0 mi South 3.5 mph - N/A   Mostly Cloudy
7:01 AM 75.2 °F - 73.4 °F 94% 30.08 in 9.0 mi South 4.6 mph - N/A   Mostly Cloudy
7:51 AM 77.0 °F - 73.4 °F 89% 30.10 in 7.0 mi South 4.6 mph - N/A   Mostly Cloudy
7:54 AM 77.0 °F - 73.9 °F 90% 30.09 in 7.0 mi South 3.5 mph - N/A   Mostly Cloudy
8:54 AM 80.1 °F 84.5 °F 73.9 °F 81% 30.11 in 10.0 mi SSW 4.6 mph - N/A   Mostly Cloudy
9:54 AM 81.0 °F 86.2 °F 73.9 °F 79% 30.13 in 10.0 mi WSW 6.9 mph - N/A   Mostly Cloudy
10:54 AM 79.0 °F - 73.0 °F 82% 30.13 in 10.0 mi SW 4.6 mph - 0.00 in   Mostly Cloudy
11:54 AM 82.0 °F 87.9 °F 73.9 °F 76% 30.13 in 10.0 mi SW 8.1 mph - N/A   Mostly Cloudy
12:54 PM 84.0 °F 90.2 °F 73.0 °F 69% 30.12 in 10.0 mi SSW 8.1 mph - N/A   Mostly Cloudy
1:14 PM 84.2 °F 90.9 °F 73.4 °F 70% 30.12 in 10.0 mi SW 9.2 mph - N/A   Mostly Cloudy
1:25 PM 84.2 °F 90.9 °F 73.4 °F 70% 30.12 in 10.0 mi SW 9.2 mph - N/A   Scattered Clouds
1:54 PM 86.0 °F 93.0 °F 73.0 °F 65% 30.10 in 10.0 mi SSW 8.1 mph - N/A   Mostly Cloudy
2:54 PM 84.9 °F 91.4 °F 73.0 °F 67% 30.09 in 10.0 mi South 11.5 mph - N/A   Clear
3:54 PM 82.9 °F 88.0 °F 72.0 °F 69% 30.09 in 10.0 mi SW 6.9 mph - N/A   Mostly Cloudy
4:54 PM 81.0 °F 85.8 °F 73.0 °F 77% 30.10 in 10.0 mi SSW 6.9 mph - N/A   Mostly Cloudy
5:54 PM 80.1 °F 84.5 °F 73.9 °F 81% 30.12 in 10.0 mi South 6.9 mph - N/A   Mostly Cloudy
6:54 PM 78.1 °F - 73.9 °F 87% 30.13 in 10.0 mi SSW 4.6 mph - N/A   Mostly Cloudy
7:54 PM 77.0 °F - 73.9 °F 90% 30.13 in 10.0 mi SSE 5.8 mph - N/A   Scattered Clouds
8:54 PM 77.0 °F - 75.0 °F 94% 30.15 in 9.0 mi SSW 5.8 mph - N/A   Scattered Clouds
9:01 PM 77.0 °F - 73.4 °F 89% 30.16 in 9.0 mi SSW 4.6 mph - N/A   Partly Cloudy
9:54 PM 75.9 °F - 73.9 °F 94% 30.17 in 9.0 mi SSW 5.8 mph - N/A   Clear
10:54 PM 75.9 °F - 73.9 °F 94% 30.18 in 9.0 mi SSW 3.5 mph - N/A   Clear
11:54 PM 75.0 °F - 73.0 °F 94% 30.18 in 9.0 mi SW 4.6 mph - N/A   Clear